Starlink 1296

operational
NORAD ID: 45412 Int'l Des: 2020-019 Owner: SPXS Country: US Constellation: starlink
LEOCIRCULARSTARLINK_TYPE

About Starlink 1296

Description loading...

Live Position

Loading 3D Globe...

Upcoming Passes

Altitude History

Altitude vs Time

uPlot chart will show altitude changes over time

Two-Line Element Set

1 45412U 20019BE 25343.81318041 .00000857 00000-0 76434-4 0 9999
2 45412 53.0535 180.0883 0001489 93.4151 266.7008 15.06398693316315
Epoch: Dec 9, 2025 • Age: 23 hours

Current Status

Altitude 547.1 km
Velocity 7.59 km/s
Sub-Earth Point 19.87°N, 17.03°W
Launch Date Mar 18, 2020
Age 5.7 years
Type internet

Technical Details

Classification Payload
Mass 260.00 kg
Dry Mass 248.00 kg
Total Mass 260.00 kg
Length 0.20 m
Diameter 2.80 m
Span 9.00 m
Shape Box + pan
Manufacturer SPXS
Bus Type Starlink
Phase Status In Orbit
Owner/State SPXS/US

Large Constellations

Loading constellations...